Wind_Speed
26 25 24 22 21 20 18 16 14 11 8 6 3 1 1 1 1 2 2 3 5 5 4 3 2 3 3 4 6 7 7 9 10 11 13 14 13 12 11 10 10 10
26 27 25 23 22 20 19 17 14 11 8 5 2 1 1 2 1 2 3 2 4 4 4 3 2 2 3 4 6 7 7 8 9 10 12 12 12 11 10 9 9 9
27 27 25 23 22 21 19 17 14 11 8 4 2 1 2 3 3 2 3 1 2 4 4 3 2 2 3 3 5 6 7 8 8 9 10 10 11 11 10 10 10 10
29 26 25 24 23 21 19 16 13 11 7 4 3 2 2 3 4 3 3 2 1 3 3 3 2 2 3 4 5 5 6 7 8 9 9 9 9 10 11 11 11 12
29 26 25 25 23 21 19 16 13 11 7 4 4 4 3 3 4 4 3 2 1 3 3 3 3 3 4 4 5 5 6 6 7 7 8 8 8 8 10 12 13 14
29 27 27 26 24 22 20 16 14 11 8 6 5 5 5 5 5 5 4 3 1 3 4 3 4 4 5 5 6 6 7 7 7 8 9 9 9 9 8 11 12 12
29 28 27 27 25 23 20 17 14 11 9 7 6 7 6 6 6 6 5 3 2 4 5 4 5 5 6 6 7 8 8 9 9 9 10 10 11 12 10 10 11 11
29 28 28 28 25 23 20 17 15 13 11 9 8 8 8 8 8 7 6 4 3 4 6 5 5 6 7 7 8 9 9 10 10 10 10 10 11 13 12 11 12 12
29 29 29 27 25 23 21 19 17 15 13 12 10 10 10 9 9 8 7 6 4 5 6 6 6 7 8 9 9 10 10 10 10 10 11 10 10 11 12 12 11 11
29 30 29 27 26 24 22 20 18 16 15 14 13 12 12 11 10 9 8 6 5 5 6 6 7 8 9 10 10 10 10 10 10 10 11 11 10 10 10 11 10 10
30 29 28 28 27 25 24 22 20 18 16 16 15 15 14 13 11 9 8 7 5 5 6 6 7 9 10 11 11 11 11 11 11 11 11 10 10 10 10 10 10 9
29 28 27 27 26 26 25 23 21 19 18 19 18 17 16 15 12 10 8 8 7 6 7 7 9 10 11 13 13 13 13 12 12 11 11 11 10 10 10 9 9 9
26 25 26 25 25 25 25 23 22 22 21 21 20 19 18 16 13 11 9 9 8 8 8 9 10 12 13 14 15 15 14 13 12 12 11 11 10 10 10 10 10 10
25 25 25 25 24 25 25 24 24 24 23 22 21 20 19 17 14 12 11 11 10 10 11 12 13 14 15 16 16 16 15 14 13 13 12 12 11 11 11 11 12 12
27 25 25 25 24 24 26 26 25 26 25 24 22 21 19 18 16 15 14 13 13 12 13 14 16 17 17 18 18 18 17 15 15 14 13 13 12 12 12 13 14 14
29 27 27 27 26 25 27 27 27 27 26 25 24 22 21 20 19 18 17 16 15 16 16 17 18 18 18 19 18 18 17 16 15 14 14 13 13 13 13 14 14 14
28 28 29 28 28 27 27 28 28 28 28 27 25 24 23 23 22 21 19 17 18 19 20 20 20 20 20 20 19 18 17 16 15 15 14 14 14 14 14 13 13 13
26 27 29 30 30 30 29 29 30 30 29 29 28 27 27 26 24 23 21 20 21 22 22 22 21 22 22 21 20 19 17 16 16 16 15 15 14 14 14 13 13 13
24 24 26 27 28 29 29 30 30 28 28 29 30 31 30 29 28 26 24 22 23 24 24 24 23 23 23 22 21 19 18 18 17 17 16 16 15 15 15 15 16 16
22 22 21 22 23 25 26 27 25 23 23 24 26 26 26 26 29 30 28 26 26 29 30 29 27 25 24 23 22 21 20 20 19 18 18 18 18 18 18 18 19 19
21 20 19 18 19 19 20 18 15 14 15 17 18 20 20 21 24 26 27 29 32 34 33 30 27 25 25 25 24 23 23 22 22 21 21 22 22 22 22 22 22 21
15 15 15 15 14 13 13 12 11 12 14 16 18 20 20 19 19 19 23 28 30 30 27 24 22 23 26 27 26 26 26 25 25 25 24 25 25 24 24 24 24 24
12 13 13 13 13 12 11 11 12 12 11 11 12 14 15 15 15 14 17 21 23 24 22 20 20 23 26 27 27 28 28 27 27 27 26 27 27 26 26 26 27 27
12 12 12 11 11 11 11 11 10 9 7 4 4 8 11 11 10 10 12 14 17 20 21 21 22 24 26 27 28 29 29 29 29 28 28 28 28 28 28 28 29 29
11 10 10 10 9 9 9 9 10 10 8 5 4 6 9 10 10 11 13 15 17 20 22 23 25 26 27 28 29 29 30 30 31 31 30 30 30 31 31 31 31 31
10 8 8 8 8 7 7 8 9 9 8 7 6 7 9 11 12 13 14 15 17 20 22 24 25 26 27 27 28 29 30 31 32 33 33 32 32 32 32 31 31 31
Wind_Direction
168 168 172 172 170 169 170 172 173 171 167 164 163 151 31 44 78 70 79 132 168 181 195 204 213 209 198 191 178 177 203 210 202 205 208 208 210 210 208 207 206 201
174 170 171 173 174 174 176 177 178 176 172 171 177 201 345 354 16 35 51 106 169 185 199 211 223 222 210 200 184 179 193 202 199 203 207 207 210 210 207 207 207 202
181 174 172 175 177 179 182 182 181 180 177 178 197 246 342 350 352 3 21 57 176 188 202 217 229 232 220 208 195 183 183 189 191 195 199 204 211 214 212 208 203 202
183 176 175 179 181 183 187 186 184 184 181 188 224 251 315 335 333 340 360 6 208 198 206 228 243 241 227 212 198 187 184 187 188 190 193 196 203 213 217 210 203 204
184 178 180 183 183 186 188 187 187 188 189 203 234 245 268 307 323 331 339 347 282 218 217 240 253 248 232 215 193 183 183 182 183 184 185 181 179 191 206 204 200 203
183 183 186 186 187 189 190 190 190 191 197 215 238 247 260 287 314 326 326 331 287 229 225 237 246 242 231 217 192 179 179 178 176 174 173 169 160 161 182 192 191 198
186 188 189 190 192 192 192 193 194 198 207 222 239 250 262 280 302 317 319 316 265 224 226 233 236 232 225 214 195 183 179 176 174 171 167 164 158 153 163 178 179 186
189 192 193 195 197 196 197 199 199 203 212 224 238 254 265 277 292 304 312 308 268 224 223 230 230 222 216 211 199 187 180 175 173 170 167 166 163 158 161 172 178 183
192 196 196 198 201 201 202 204 204 206 214 225 237 253 265 273 282 293 305 304 277 230 220 224 224 216 209 206 198 187 180 176 173 170 168 168 168 166 166 172 179 185
196 198 197 200 204 206 206 207 209 211 216 226 236 247 258 266 274 286 300 299 278 239 219 218 216 209 203 199 191 180 175 174 172 167 165 165 164 166 168 171 175 180
195 195 197 202 206 208 210 210 212 215 220 228 236 243 250 258 267 279 291 290 275 240 218 211 207 202 197 191 182 172 171 173 172 168 165 165 164 165 167 170 174 176
196 193 195 202 208 211 213 214 216 219 224 230 236 242 247 253 260 270 278 278 267 236 212 202 199 195 191 186 177 172 175 178 179 177 174 174 174 176 178 180 183 186
203 202 198 201 209 214 216 218 220 224 229 232 236 240 244 249 256 261 267 272 264 236 208 196 195 193 190 187 182 180 183 185 187 187 187 187 189 191 194 196 201 205
202 205 204 204 208 213 218 221 223 227 231 233 235 238 242 247 250 253 261 269 264 239 211 194 191 192 191 190 189 189 191 193 195 197 199 201 204 207 212 216 220 224
200 205 209 210 210 213 217 220 223 227 231 232 234 237 240 241 243 247 256 263 258 239 215 198 194 196 197 197 197 198 199 201 205 209 212 217 221 227 231 233 233 234
205 210 215 215 215 216 218 220 222 225 228 231 233 234 236 238 241 248 253 253 247 232 214 203 200 201 204 206 207 207 209 212 216 221 227 232 237 241 244 246 246 245
211 215 219 219 219 221 220 221 224 226 228 231 232 233 235 237 242 248 247 242 237 228 215 207 205 205 208 211 213 215 219 223 229 235 242 247 249 250 253 256 257 257
218 220 221 220 221 224 225 226 229 230 231 232 232 234 237 239 242 245 240 231 229 226 218 210 207 208 212 217 219 222 225 230 237 243 249 253 254 257 259 261 263 263
221 223 223 222 223 227 230 233 233 228 227 230 233 236 240 243 242 237 227 221 221 220 215 211 211 214 218 222 226 229 232 236 241 246 250 254 256 259 262 264 265 267
221 224 228 231 234 235 236 239 240 237 236 236 235 236 241 245 243 237 226 215 214 214 210 208 211 217 223 227 231 234 237 240 244 246 249 252 255 258 261 264 266 269
222 226 229 233 237 238 236 236 241 244 243 239 236 239 243 243 243 242 231 219 217 219 217 212 210 215 225 231 234 236 239 243 245 247 249 252 254 256 260 262 265 268
214 219 223 225 229 231 227 227 232 236 239 242 242 243 245 240 237 237 234 230 228 228 224 218 214 218 227 234 237 239 242 244 246 248 250 252 254 256 258 261 263 266
201 207 214 218 221 220 215 220 230 233 236 243 240 233 230 227 224 225 229 232 231 227 224 222 221 226 233 238 240 242 244 246 248 250 251 253 255 256 258 261 263 264
195 198 202 205 211 213 214 218 222 216 209 207 204 204 206 205 204 207 214 220 222 225 228 229 229 233 237 240 244 246 248 250 251 252 254 256 258 259 260 262 263 263
186 188 191 193 199 204 202 200 201 202 208 217 218 215 213 211 216 222 224 227 230 233 237 237 235 237 240 242 246 248 251 252 253 254 256 257 258 260 261 262 262 263
176 181 187 185 188 195 192 192 201 212 225 239 244 236 229 229 234 238 238 240 240 241 244 244 241 242 245 247 249 251 253 254 254 255 255 256 258 259 260 261 262 263
Height
3134 3137 3140 3142 3144 3145 3147 3149 3150 3151 3152 3153 3153 3154 3154 3155 3155 3155 3155 3155 3155 3155 3154 3155 3155 3156 3156 3157 3158 3159 3159 3159 3160 3160 3161 3161 3162 3163 3164 3165 3165 3166
3134 3135 3138 3141 3143 3145 3147 3148 3150 3151 3151 3152 3153 3153 3154 3154 3154 3154 3154 3154 3154 3154 3154 3154 3155 3155 3156 3156 3157 3157 3158 3158 3159 3160 3160 3161 3162 3163 3163 3164 3165 3166
3135 3135 3137 3141 3143 3145 3146 3148 3149 3149 3150 3151 3152 3152 3153 3153 3153 3153 3153 3154 3154 3154 3154 3154 3154 3154 3154 3155 3156 3156 3157 3157 3158 3159 3160 3161 3162 3163 3163 3164 3165 3166
3133 3134 3137 3140 3143 3144 3146 3147 3147 3148 3149 3150 3151 3151 3152 3152 3152 3153 3153 3153 3153 3153 3153 3153 3153 3153 3154 3154 3155 3156 3156 3156 3157 3158 3159 3160 3162 3162 3163 3164 3165 3165
3132 3134 3136 3139 3142 3143 3144 3145 3146 3147 3148 3149 3150 3150 3151 3152 3152 3152 3152 3152 3152 3152 3153 3153 3152 3153 3153 3154 3154 3155 3155 3156 3156 3157 3158 3159 3161 3162 3163 3163 3164 3165
3131 3134 3136 3138 3140 3142 3143 3144 3145 3146 3147 3148 3149 3149 3150 3151 3151 3152 3152 3152 3152 3152 3152 3152 3152 3153 3153 3153 3154 3155 3155 3156 3156 3157 3158 3158 3160 3162 3163 3163 3164 3165
3130 3133 3135 3137 3139 3140 3142 3143 3144 3145 3146 3147 3148 3148 3149 3150 3150 3151 3151 3152 3152 3152 3152 3152 3152 3152 3153 3153 3154 3154 3155 3156 3156 3157 3158 3158 3160 3161 3163 3164 3164 3165
3129 3132 3134 3136 3138 3139 3141 3142 3143 3144 3145 3146 3147 3147 3148 3149 3149 3150 3151 3151 3151 3151 3151 3152 3152 3152 3153 3153 3154 3154 3155 3155 3156 3157 3158 3159 3160 3161 3162 3163 3164 3165
3128 3131 3133 3135 3137 3138 3139 3141 3141 3142 3144 3145 3146 3147 3147 3148 3149 3149 3150 3150 3151 3151 3151 3151 3152 3152 3152 3153 3154 3154 3155 3155 3156 3157 3158 3159 3160 3161 3162 3163 3164 3165
3127 3130 3132 3133 3135 3136 3138 3139 3140 3141 3142 3143 3145 3146 3146 3147 3148 3149 3149 3149 3150 3150 3150 3151 3151 3152 3152 3153 3154 3154 3155 3155 3156 3157 3158 3159 3160 3161 3162 3163 3164 3164
3126 3128 3130 3132 3134 3135 3136 3137 3138 3140 3141 3142 3143 3144 3145 3146 3147 3148 3148 3149 3149 3149 3150 3150 3151 3152 3152 3153 3154 3154 3155 3156 3157 3158 3159 3159 3160 3161 3162 3163 3163 3164
3124 3127 3129 3131 3132 3133 3135 3136 3137 3138 3139 3141 3142 3143 3144 3145 3146 3146 3147 3148 3149 3149 3149 3150 3151 3151 3152 3153 3154 3154 3155 3156 3157 3158 3159 3160 3161 3161 3162 3163 3164 3165
3125 3126 3127 3129 3131 3132 3134 3134 3135 3137 3138 3139 3140 3142 3143 3143 3144 3145 3146 3147 3148 3148 3148 3149 3150 3151 3152 3153 3153 3154 3155 3156 3157 3158 3159 3159 3160 3161 3162 3163 3164 3164
3123 3124 3126 3127 3129 3130 3132 3133 3134 3135 3136 3137 3139 3140 3141 3142 3143 3144 3145 3146 3147 3147 3147 3147 3149 3150 3151 3152 3153 3154 3155 3155 3156 3157 3158 3159 3160 3160 3161 3162 3162 3163
3120 3122 3124 3126 3126 3128 3130 3131 3132 3133 3134 3135 3137 3138 3139 3140 3141 3142 3143 3144 3145 3146 3146 3146 3147 3149 3150 3151 3152 3153 3154 3154 3155 3156 3157 3158 3159 3160 3160 3161 3161 3161
3117 3120 3122 3123 3125 3126 3128 3129 3130 3131 3132 3133 3134 3136 3137 3138 3139 3140 3141 3142 3143 3143 3144 3144 3145 3147 3149 3150 3151 3152 3153 3154 3155 3155 3156 3157 3158 3158 3159 3159 3159 3159
3114 3117 3119 3121 3123 3124 3125 3127 3127 3128 3129 3131 3132 3133 3135 3136 3137 3138 3139 3139 3140 3141 3141 3142 3144 3145 3147 3148 3149 3150 3152 3153 3154 3154 3155 3156 3156 3156 3157 3157 3157 3158
3112 3114 3116 3119 3120 3121 3123 3124 3125 3126 3127 3128 3129 3131 3131 3133 3134 3135 3136 3137 3137 3138 3139 3141 3142 3144 3145 3146 3148 3149 3150 3151 3152 3152 3153 3154 3154 3155 3155 3155 3155 3156
3110 3111 3113 3116 3117 3119 3120 3121 3122 3123 3124 3125 3126 3127 3128 3129 3131 3131 3132 3134 3135 3136 3137 3139 3140 3142 3143 3145 3146 3147 3148 3149 3149 3150 3151 3151 3152 3152 3152 3153 3153 3153
3108 3109 3111 3114 3115 3116 3117 3118 3119 3120 3120 3121 3123 3124 3125 3126 3127 3127 3128 3130 3132 3133 3134 3135 3137 3140 3142 3143 3144 3145 3146 3146 3147 3148 3148 3149 3149 3150 3150 3150 3150 3151
3107 3108 3110 3112 3113 3114 3115 3116 3117 3117 3118 3119 3120 3121 3122 3122 3123 3124 3125 3126 3128 3129 3130 3132 3135 3137 3140 3141 3142 3143 3144 3144 3145 3145 3146 3146 3147 3147 3148 3148 3148 3148
3106 3107 3108 3110 3111 3112 3113 3114 3115 3115 3116 3116 3117 3118 3119 3119 3120 3121 3122 3124 3125 3127 3129 3131 3133 3135 3137 3139 3140 3140 3141 3142 3142 3143 3143 3144 3144 3144 3145 3145 3145 3145
3105 3106 3107 3109 3110 3110 3112 3113 3113 3114 3114 3114 3114 3115 3116 3117 3118 3119 3121 3122 3124 3126 3128 3130 3131 3133 3135 3136 3137 3138 3138 3139 3140 3140 3140 3141 3141 3141 3142 3142 3142 3142
3104 3105 3106 3108 3109 3109 3110 3111 3112 3113 3114 3114 3114 3115 3116 3117 3117 3119 3120 3121 3123 3125 3127 3128 3130 3131 3133 3134 3134 3135 3136 3136 3137 3137 3137 3137 3137 3138 3138 3138 3137 3137
3104 3105 3106 3107 3108 3109 3109 3110 3111 3112 3113 3114 3114 3115 3116 3116 3117 3119 3120 3121 3122 3124 3125 3126 3127 3128 3130 3131 3131 3132 3133 3133 3133 3133 3134 3134 3134 3134 3134 3134 3133 3133
3103 3104 3105 3106 3107 3108 3109 3110 3111 3111 3112 3113 3114 3114 3115 3116 3117 3118 3119 3120 3121 3122 3123 3124 3125 3126 3127 3127 3128 3129 3129 3130 3130 3130 3130 3130 3130 3130 3129 3129 3129 3129